Tracking 27188 objects as of 2-Apr-2023
HD Live streaming from Space Station
objects crossing your sky now

STARLINK-1735

Track STARLINK-1735 now!
10-day predictions
STARLINK-1735 is classified as:


NORAD ID: 46565
Int'l Code: 2020-070AK
Perigee: 553.6 km
Apogee: 555.3 km
Inclination: 53.1 °
Period: 95.6 minutes
Semi major axis: 6925 km
RCS: Unknown
Launch date: October 6, 2020
Source: United States (US)
Launch site: AIR FORCE EASTERN TEST RANGE (AFETR)
Your satellite tracking list
Your tracking list is empty




NASA's NSSDC Master Catalog

Two Line Element Set (TLE):
1 46565U 20070AK  23091.01203521  .00027048  00000-0  18291-2 0  9998
2 46565  53.0534 296.5421 0001207  71.5633 288.5487 15.06372598137955
Source of the keplerian elements: AFSPC